RH
31 44 77 77 73 50 32 30 24 20 18 20 19 19 29 28 28 22 22 26 26 27 24 21 19 20 33 32 32 37 41 40 37 39 42 40 38 41 42 40 36 31 70 95 100
54 45 70 88 69 74 32 30 27 24 22 21 20 19 22 24 21 24 27 29 28 29 23 22 24 25 26 24 24 29 27 28 30 31 34 34 38 43 46 41 39 42 46 42 32
45 40 44 78 61 92 40 28 30 26 23 22 19 17 17 18 17 21 24 30 35 37 30 27 27 29 31 30 27 29 29 30 41 35 29 31 30 30 36 41 44 46 43 52 50
42 46 52 78 82 86 63 34 30 27 23 21 18 16 17 17 17 16 17 18 28 36 37 33 35 32 30 30 32 34 37 38 39 50 43 39 55 45 34 37 41 41 43 54 60
49 46 53 32 45 91 79 51 35 29 24 22 19 17 16 18 18 18 20 22 27 38 40 41 41 43 39 38 44 48 41 51 44 49 41 51 58 70 74 46 39 43 44 41 42
65 49 52 35 34 73 99 69 56 42 28 25 22 20 19 19 20 22 24 22 32 41 34 54 42 49 58 54 54 56 59 45 47 58 58 48 63 42 55 86 69 63 50 56 64
77 93 52 60 38 67 98 89 76 62 43 32 31 23 22 23 22 26 25 25 35 49 60 61 65 33 56 49 58 84 87 60 45 58 59 47 70 57 68 74 88 100 100 91 80
100 77 75 62 58 45 96 100 94 79 72 51 45 35 24 26 32 31 26 30 35 52 58 51 71 50 43 47 72 84 96 87 75 59 56 67 72 68 74 73 82 82 89 100 97
67 64 84 69 69 58 84 83 100 95 91 78 64 62 35 35 49 52 34 35 42 42 63 71 70 86 50 50 63 82 100 100 83 58 57 79 98 86 78 84 94 89 72 84 99
88 73 74 79 86 67 100 96 100 100 100 94 84 79 70 57 74 64 34 32 34 32 75 82 74 88 85 96 96 73 90 100 94 70 76 65 70 100 68 80 81 94 100 87 88
82 98 92 81 79 88 70 100 87 100 100 100 100 98 91 79 96 62 25 24 27 36 48 50 65 86 100 88 54 27 86 100 100 77 66 58 93 100 99 80 89 84 89 100 100
56 76 84 82 70 100 89 100 97 100 100 100 100 100 100 99 100 82 36 48 37 46 36 46 78 56 52 61 37 27 50 49 68 66 65 63 88 78 80 91 100 99 71 97 100
37 45 52 57 39 81 100 100 100 80 100 99 99 100 100 100 100 100 65 66 57 39 28 36 35 38 41 49 40 34 40 67 72 68 74 73 80 99 88 90 100 100 95 99 100
34 33 31 39 27 49 59 100 100 100 100 92 100 100 100 89 100 100 80 81 55 31 51 64 49 31 29 31 42 44 65 87 90 73 91 94 97 96 66 90 100 100 100 100 100
28 41 29 25 28 26 36 84 100 100 100 100 99 81 72 77 100 100 95 89 84 68 57 75 58 38 38 36 38 55 83 96 100 67 100 100 82 100 98 90 100 100 98 100 100
27 35 39 26 27 28 35 72 100 100 100 99 95 65 60 73 100 100 100 100 100 92 94 81 43 36 51 73 52 32 41 52 74 85 93 100 85 98 100 68 99 67 40 40 49
28 26 37 34 28 26 27 46 100 100 100 100 98 72 64 59 100 100 100 100 100 99 100 63 42 42 70 97 73 42 37 68 80 50 64 96 78 88 99 86 83 57 17 16 28
26 26 30 37 30 25 26 31 83 97 100 100 100 87 70 80 100 100 100 100 100 100 100 61 38 58 65 94 48 32 54 96 77 72 95 100 80 68 87 90 82 76 13 12 16
27 27 30 33 28 24 24 21 60 98 100 100 100 84 74 91 100 100 100 97 100 100 93 63 65 79 95 100 54 75 95 95 65 92 100 66 64 52 79 91 88 92 16 12 16
29 24 30 28 25 24 23 22 37 66 100 100 100 85 77 97 99 89 85 99 100 100 100 87 100 82 52 61 43 59 60 69 78 65 72 84 89 87 68 98 96 84 18 12 13
27 26 25 21 23 23 23 23 38 76 100 100 100 94 87 79 85 76 78 86 100 100 100 88 50 39 37 57 49 34 35 48 74 61 100 100 100 84 85 100 100 90 20 12 12
25 27 23 21 23 23 20 22 50 87 100 100 98 79 84 80 80 53 73 77 100 97 75 62 55 60 85 85 78 47 42 64 53 75 100 97 93 96 86 89 100 91 19 13 12
24 24 22 23 23 21 20 21 46 100 100 100 97 84 91 80 54 52 61 62 48 44 38 37 39 42 60 40 38 41 40 42 54 65 82 100 86 100 91 76 100 74 15 13 12
21 26 21 23 22 21 21 33 68 100 99 98 85 83 100 84 50 50 54 55 54 53 44 42 40 43 35 37 39 50 37 42 46 54 64 100 100 100 100 81 91 45 14 13 12
22 25 21 20 20 22 25 50 93 100 100 100 88 85 99 97 86 65 66 72 77 66 68 54 55 46 57 48 52 60 34 40 44 60 70 87 100 100 100 78 81 24 13 14 13
20 22 20 20 21 23 32 62 100 100 100 100 84 73 92 93 96 84 93 89 84 80 70 65 53 56 44 42 34 43 40 42 37 70 86 95 100 100 100 75 70 14 13 14 14
20 20 20 20 23 34 69 100 100 100 98 88 71 60 57 88 99 100 87 76 62 55 55 48 44 40 33 33 30 50 50 50 48 49 86 100 100 100 96 75 59 12 12 14 15
Wind_Speed
32 32 30 34 40 43 44 48 48 50 52 58 59 62 63 67 63 61 55 59 59 54 40 39 42 39 31 31 26 23 19 18 20 19 17 16 15 15 18 18 22 32 52 67 67
19 27 29 29 37 36 42 42 43 48 48 52 54 56 61 62 58 62 61 65 66 61 60 52 48 51 41 36 33 29 30 29 24 24 27 25 23 20 16 14 17 20 24 32 41
20 24 25 30 32 34 37 39 40 43 45 48 50 52 51 57 52 55 59 65 64 63 60 58 55 40 48 43 46 49 46 49 52 44 37 39 42 26 19 21 21 21 24 29 29
18 22 22 26 29 31 31 35 36 39 41 44 46 48 45 50 48 50 55 56 58 63 60 62 59 58 55 55 55 57 59 58 56 55 54 49 48 47 39 35 33 28 26 28 29
14 19 20 21 23 29 25 30 32 37 38 39 40 42 43 46 45 47 48 50 54 57 62 60 60 62 59 54 60 63 64 59 58 59 52 57 51 46 43 41 40 37 33 33 35
14 17 19 17 22 26 20 27 27 32 37 35 36 37 40 42 42 42 48 47 50 53 57 57 57 61 58 58 60 64 64 62 57 62 56 58 61 55 47 44 44 43 39 38 34
12 13 16 20 22 22 15 25 24 28 33 35 33 34 35 37 39 43 43 45 46 45 44 46 52 57 59 58 64 63 66 57 63 60 60 65 56 67 49 46 44 42 44 42 39
8 10 13 17 19 18 20 25 27 27 31 32 34 30 32 36 39 40 39 41 43 39 42 46 45 57 58 60 61 66 70 65 66 61 62 64 65 70 57 48 45 46 42 48 45
4 8 12 14 20 16 19 22 24 27 32 32 34 29 28 35 38 39 40 43 39 40 41 40 44 52 55 57 59 64 69 70 68 70 68 70 67 72 71 58 52 47 45 46 49
7 9 10 13 18 20 18 20 26 27 31 33 35 29 30 32 37 39 38 38 36 40 38 38 41 53 57 62 64 68 69 70 66 75 72 69 65 74 77 66 58 52 49 50 48
15 10 12 16 20 22 15 20 21 24 32 35 37 30 27 30 35 35 34 34 40 41 41 43 48 52 56 56 56 58 64 65 68 75 78 71 72 83 80 78 64 56 59 56 57
18 18 18 21 23 21 21 17 20 22 28 30 35 36 36 32 33 33 32 38 40 42 47 45 48 50 49 52 53 59 64 71 79 80 77 73 73 80 81 90 70 61 53 54 54
21 22 24 24 25 27 24 23 22 19 24 26 32 35 40 38 38 33 33 39 41 45 45 47 45 47 52 55 56 58 64 71 78 83 77 78 85 80 88 90 75 69 59 49 58
23 25 24 29 33 32 34 26 28 22 23 25 28 31 39 39 41 35 32 38 39 41 42 47 52 53 57 63 67 62 65 69 83 82 89 87 88 86 86 88 74 64 63 56 65
29 28 28 28 30 35 35 33 30 26 28 27 28 31 34 35 39 37 34 35 41 43 43 53 55 59 64 65 68 69 68 71 77 89 93 94 102 89 91 87 75 70 68 66 59
33 32 32 34 33 33 36 34 28 27 32 30 32 39 32 33 39 46 47 42 44 44 47 50 53 61 67 72 75 72 78 75 81 86 92 94 106 103 98 91 82 76 66 61 49
36 35 36 36 38 37 38 36 29 33 36 38 41 40 34 35 38 46 54 47 47 45 50 51 58 64 68 75 79 78 78 78 79 89 95 101 109 105 102 96 85 94 69 61 52
42 39 39 40 41 41 42 39 38 36 39 42 42 36 36 39 41 49 49 49 50 51 52 55 57 63 68 72 77 75 77 83 85 91 98 107 112 116 105 107 96 96 72 59 52
46 43 40 42 43 44 44 44 42 40 42 44 42 40 40 42 45 49 48 52 54 53 53 54 60 68 72 72 77 73 78 82 87 90 99 112 114 118 116 113 100 91 77 63 55
47 46 43 44 45 46 46 48 46 43 46 44 41 43 45 45 47 48 48 49 52 52 52 56 63 66 69 71 73 79 83 87 89 99 103 109 122 125 123 106 99 88 75 66 57
51 50 47 47 46 46 48 52 48 44 49 44 42 44 47 50 51 51 51 49 52 56 58 60 62 67 69 73 84 84 93 88 94 99 108 111 121 128 121 107 95 86 71 64 60
55 54 50 49 48 49 51 53 51 48 51 48 47 51 52 54 54 53 51 50 51 56 57 62 68 70 77 84 87 96 89 91 97 106 109 120 125 126 125 111 95 83 70 63 60
59 56 53 50 51 53 55 55 52 51 52 53 55 55 54 55 49 49 52 52 54 58 63 67 70 73 80 84 86 86 92 100 104 108 110 122 128 124 126 120 96 80 68 62 59
61 57 55 55 56 57 58 57 52 53 55 57 57 55 55 50 47 52 57 60 61 61 67 71 75 81 85 87 94 99 101 106 115 119 116 122 127 126 131 127 96 77 67 62 59
62 61 59 58 59 61 59 59 55 58 59 57 57 55 55 53 53 56 57 61 66 70 72 77 76 78 88 94 100 102 100 110 118 122 127 121 126 135 126 118 93 74 66 60 58
63 63 63 62 62 62 61 59 59 62 61 59 58 57 61 64 60 60 63 67 70 73 77 77 77 85 85 89 93 97 101 116 117 119 126 132 128 133 117 107 88 72 63 60 58
65 64 63 63 64 63 63 61 62 59 62 67 67 61 63 64 63 66 68 75 74 73 76 80 82 83 82 87 95 103 112 113 116 127 132 126 138 128 114 99 84 75 64 60 58
Wind_Direction
35 34 35 34 36 48 48 49 48 54 55 56 55 55 58 62 64 64 60 54 53 53 51 40 36 37 51 42 36 54 60 59 47 47 42 27 7 341 323 306 284 271 260 255 255
16 30 35 33 29 45 46 50 49 48 51 48 50 52 58 64 66 65 59 58 55 52 52 56 45 44 39 35 30 25 25 27 23 24 20 14 15 4 342 324 306 300 292 278 267
45 33 41 39 34 36 45 45 48 49 49 48 49 48 53 59 63 62 56 57 54 51 50 52 49 44 47 40 38 34 26 24 24 18 11 10 4 347 348 338 322 303 289 289 286
32 37 38 43 37 28 44 37 44 49 50 48 49 49 52 47 54 52 53 49 46 47 49 47 46 44 44 43 40 30 27 22 21 16 13 11 7 2 348 348 344 337 317 296 292
36 35 26 41 38 28 43 38 37 45 45 44 47 48 46 45 48 51 42 43 44 46 46 43 45 40 41 40 35 30 24 21 18 16 11 7 360 354 350 343 336 336 324 319 304
21 26 27 32 31 30 37 33 37 38 42 38 39 43 40 40 40 38 37 43 47 43 44 40 41 38 37 36 29 25 18 18 16 15 9 6 3 2 347 341 337 330 326 317 310
22 4 15 20 19 31 31 18 33 37 36 33 31 32 35 35 37 29 35 41 41 40 39 36 37 32 32 28 22 18 16 18 14 8 8 5 3 3 350 341 333 330 324 316 306
41 348 350 10 10 20 11 356 25 28 26 27 20 24 30 29 29 27 33 30 25 29 33 34 30 27 25 21 17 12 10 11 10 8 2 2 1 357 352 340 335 327 320 315 308
355 333 333 349 360 10 3 2 3 14 16 16 13 17 23 22 22 21 18 15 24 35 32 30 27 21 17 15 12 8 5 7 6 7 3 356 358 356 352 339 329 328 325 319 322
319 332 340 354 357 351 348 351 347 351 7 6 3 6 10 14 15 17 14 19 26 21 26 23 21 12 9 3 2 2 2 1 359 359 357 355 353 353 355 346 333 321 318 321 325
325 334 343 359 352 350 334 338 348 345 356 352 356 1 358 4 8 15 17 18 7 12 15 11 8 5 4 3 3 5 3 357 357 354 352 350 351 349 348 350 335 325 315 315 304
311 324 332 336 346 344 347 331 339 339 338 343 350 350 353 355 0 6 8 3 3 4 3 8 3 2 360 359 359 359 359 354 352 353 354 354 349 350 348 348 336 329 316 308 313
298 306 317 324 334 344 341 337 321 334 329 335 344 345 344 343 347 352 355 358 353 357 2 2 357 356 353 351 352 354 357 356 358 355 351 354 349 345 347 347 333 327 320 315 311
286 296 306 315 320 328 334 332 342 318 323 335 336 339 337 337 337 339 347 350 353 355 359 355 354 354 353 356 359 358 359 358 357 357 354 353 353 346 344 344 334 333 326 319 322
278 284 294 303 314 323 326 330 328 322 328 329 327 330 331 334 334 328 336 342 347 349 346 348 348 349 348 352 355 354 356 354 352 353 354 355 353 348 352 342 340 334 330 329 324
273 277 285 295 307 315 319 323 323 312 316 321 323 331 332 337 335 326 326 330 337 339 339 339 344 345 346 346 344 351 350 350 347 347 348 350 348 349 350 344 348 339 332 328 325
267 275 279 288 297 305 313 314 309 313 315 316 321 324 325 334 332 327 327 324 331 335 338 335 336 341 341 339 339 340 347 346 345 349 345 345 346 347 349 350 349 346 336 330 323
265 272 276 283 291 298 307 309 306 311 312 317 319 324 329 333 330 325 327 321 323 332 334 333 330 333 334 334 339 338 343 342 342 345 349 346 344 346 351 353 348 344 337 330 327
263 269 274 279 287 295 301 303 304 304 309 315 319 323 326 332 326 325 324 322 319 327 330 327 326 327 330 332 333 339 340 339 343 346 348 346 348 348 351 352 346 341 337 332 327
260 266 271 277 283 290 295 299 302 304 308 313 317 320 326 325 323 322 321 320 319 320 322 326 326 326 331 330 330 334 336 338 342 342 345 346 348 349 351 348 344 341 336 329 323
259 264 269 275 282 287 292 296 300 302 308 311 314 320 322 322 321 319 320 319 319 318 319 326 329 328 327 329 328 331 334 336 339 340 340 341 345 347 352 346 342 339 334 327 321
260 263 269 275 281 285 289 294 300 301 304 306 312 317 321 320 316 318 316 318 318 322 322 321 326 327 328 326 325 328 331 337 338 340 343 344 345 347 350 346 341 338 332 325 321
259 264 269 275 280 284 287 292 295 299 301 304 310 314 318 315 315 318 320 320 320 319 318 318 321 327 324 327 327 328 330 336 341 340 345 342 343 347 347 345 339 337 330 326 322
259 266 269 275 278 283 287 289 294 297 301 306 311 315 316 311 314 318 319 317 317 318 319 320 323 325 325 329 331 331 332 336 340 341 344 338 341 345 343 341 337 336 330 327 323
262 266 270 274 278 283 286 287 293 297 301 305 308 309 316 305 306 311 314 316 316 317 319 321 320 326 324 326 329 330 331 334 337 339 340 341 342 341 340 341 337 334 329 326 322
263 266 273 275 280 283 283 288 293 296 299 303 304 308 311 308 303 306 311 315 317 316 317 319 316 317 319 323 328 334 332 334 336 338 343 343 340 339 339 340 335 332 328 325 322
262 266 271 275 279 280 283 289 293 298 299 301 301 303 307 310 305 307 309 312 316 317 316 318 317 317 323 323 328 332 334 333 335 338 342 339 339 338 338 337 333 331 327 325 322